Weather History for Hillsdale, MI

Change the Weather History Date:

Friday, January 4, 2013

  Actual Average Record
Temperature  
Mean Temperature 23 °F -  
Max Temperature 27 °F 31 °F 56 °F (1950)
Min Temperature 19 °F 15 °F -21 °F (1981)
Degree Days  
Heating Degree Days 42    
Moisture  
Dew Point 18 °F    
Average Humidity 76    
Maximum Humidity 87    
Minimum Humidity 62    
Precipitation  
Precipitation 0.00 in - - ()
Sea Level Pressure  
Sea Level Pressure 30.11 in    
Wind  
Wind Speed 12 mph (WSW)    
Max Wind Speed 21 mph    
Max Gust Speed 26 mph    
Visibility 10 miles    
Events      
Averages and records for this station are not official NWS values.
T = Trace of Precipitation, MM = Missing Value Source: NWS Daily Summary

Daily Weather History Graph

Daily Weather History Graph

Search for Another Location

Airport:

Trip Planner

Search our weather history database for the weather conditions in past years. The results will help you decide how hot, cold, wet, or windy it might be!

Date:

Astronomy

Jan. 04, 2013 Rise Set
Actual Time 8:06 AM EST 5:20 PM EST
Civil Twilight 7:34 AM EST 5:52 PM EST
Nautical Twilight 6:59 AM EST 6:27 PM EST
Astronomical Twilight 6:26 AM EST 7:01 PM EST
Moon 12:01 AM EST (1/4) 11:41 AM EST (1/4)
Length of Visible Light 10h 17m
Length of Day
9h 14m
Waning Gibbous, 55% of the Moon is Illuminated
Jan 4
Waning Gibbous
Jan 4
Last Quarter
Jan 11
New
Jan 18
First Quarter
Jan 26
Full

Hourly Weather History & Observations

Time (EST) Temp. Windchill Dew Point Humidity Pressure Visibility Wind Dir Wind Speed Gust Speed Precip Events Conditions
12:14 AM 27.3 °F 18.4 °F 22.1 °F 81% 30.13 in 10.0 mi WSW 9.2 mph - N/A   Overcast
12:35 AM 27.3 °F 18.4 °F 21.7 °F 80% 30.13 in 10.0 mi WSW 9.2 mph - N/A   Overcast
12:54 AM 27.3 °F 18.4 °F 21.7 °F 80% 30.13 in 10.0 mi WSW 9.2 mph - N/A   Overcast
1:14 AM 27.3 °F 17.1 °F 21.7 °F 80% 30.12 in 10.0 mi WSW 11.5 mph 16.1 mph N/A   Overcast
1:35 AM 27.0 °F 18.0 °F 21.4 °F 79% 30.12 in 10.0 mi West 9.2 mph - N/A   Overcast
1:54 AM 27.0 °F 18.0 °F 21.4 °F 79% 30.12 in 10.0 mi WSW 9.2 mph - N/A   Overcast
2:34 AM 27.0 °F 18.0 °F 21.0 °F 78% 30.12 in 10.0 mi WSW 9.2 mph 17.3 mph N/A   Overcast
2:54 AM 27.0 °F 16.7 °F 20.8 °F 78% 30.12 in 10.0 mi WSW 11.5 mph 18.4 mph N/A   Overcast
3:15 AM 27.0 °F 15.6 °F 20.8 °F 78% 30.12 in 10.0 mi WSW 13.8 mph 18.4 mph N/A   Overcast
3:34 AM 26.2 °F 15.2 °F 20.5 °F 79% 30.12 in 10.0 mi WSW 12.7 mph 17.3 mph N/A   Overcast
3:55 AM 25.9 °F 14.8 °F 20.1 °F 79% 30.12 in 10.0 mi WSW 12.7 mph - N/A   Overcast
4:14 AM 25.3 °F 15.3 °F 20.3 °F 81% 30.11 in 10.0 mi WSW 10.4 mph - N/A   Overcast
4:34 AM 25.2 °F 13.3 °F 20.1 °F 81% 30.11 in 10.0 mi WSW 13.8 mph 19.6 mph N/A   Overcast
4:55 AM 24.4 °F 13.5 °F 19.4 °F 81% 30.10 in 10.0 mi WSW 11.5 mph 20.7 mph N/A   Overcast
5:14 AM 24.1 °F 12.5 °F 19.0 °F 81% 30.10 in 10.0 mi West 12.7 mph 19.6 mph N/A   Overcast
5:54 AM 21.7 °F 10.2 °F 18.1 °F 86% 30.11 in 10.0 mi WSW 11.5 mph 17.3 mph N/A   Mostly Cloudy
6:35 AM 20.1 °F 6.9 °F 16.7 °F 87% 30.10 in 7.0 mi WSW 13.8 mph 20.7 mph N/A   Clear
6:54 AM 19.8 °F 7.7 °F 15.6 °F 84% 30.10 in 10.0 mi WSW 11.5 mph 18.4 mph N/A   Clear
7:14 AM 19.8 °F 7.7 °F 14.9 °F 81% 30.10 in 10.0 mi WSW 11.5 mph 19.6 mph N/A   Clear
7:35 AM 19.8 °F 5.4 °F 14.5 °F 80% 30.10 in 10.0 mi WSW 16.1 mph 21.9 mph N/A   Clear
8:14 AM 19.2 °F 7.7 °F 14.0 °F 80% 30.11 in 10.0 mi West 10.4 mph 19.6 mph N/A   Clear
8:34 AM 19.0 °F 5.6 °F 13.8 °F 80% 30.11 in 10.0 mi West 13.8 mph 19.6 mph N/A   Clear
8:55 AM 19.0 °F 7.5 °F 13.6 °F 79% 30.11 in 10.0 mi West 10.4 mph - N/A   Clear
9:14 AM 19.6 °F 6.8 °F 13.3 °F 77% 30.11 in 10.0 mi West 12.7 mph 18.4 mph N/A   Clear
9:34 AM 20.1 °F 7.5 °F 12.4 °F 72% 30.11 in 10.0 mi WSW 12.7 mph 18.4 mph N/A   Clear
9:54 AM 20.7 °F 7.6 °F 12.0 °F 69% 30.12 in 10.0 mi West 13.8 mph - N/A   Clear
10:14 AM 20.8 °F 7.9 °F 12.0 °F 69% 30.13 in 10.0 mi West 13.8 mph - N/A   Clear
10:35 AM 20.7 °F 8.2 °F 12.2 °F 70% 30.13 in 10.0 mi West 12.7 mph 18.4 mph N/A   Clear
10:54 AM 20.1 °F 4.6 °F 12.2 °F 71% 30.13 in 10.0 mi West 19.6 mph 26.5 mph N/A   Clear
11:14 AM 21.0 °F 5.4 °F 13.5 °F 73% 30.11 in 10.0 mi West 20.7 mph 26.5 mph N/A   Scattered Clouds
11:35 AM 21.7 °F 7.5 °F 14.9 °F 75% 30.11 in 10.0 mi West 17.3 mph 21.9 mph N/A   Mostly Cloudy
11:54 AM 22.1 °F 10.0 °F 15.8 °F 77% 30.10 in 10.0 mi WSW 12.7 mph 25.3 mph N/A   Mostly Cloudy
12:15 PM 23.2 °F 12.0 °F 15.8 °F 73% 30.09 in 10.0 mi WSW 11.5 mph 20.7 mph N/A   Scattered Clouds
12:35 PM 23.4 °F 12.8 °F 15.6 °F 72% 30.09 in 10.0 mi West 10.4 mph 21.9 mph N/A   Clear
12:54 PM 24.3 °F 11.7 °F 15.3 °F 69% 30.08 in 10.0 mi WSW 15.0 mph 19.6 mph N/A   Clear
1:15 PM 24.4 °F 13.0 °F 15.4 °F 69% 30.07 in 10.0 mi WSW 12.7 mph 24.2 mph N/A   Clear
1:35 PM 25.2 °F 11.6 °F 15.4 °F 67% 30.07 in 10.0 mi WSW 18.4 mph 24.2 mph N/A   Clear
1:54 PM 26.1 °F 13.1 °F 15.6 °F 65% 30.06 in 10.0 mi WSW 17.3 mph 23.0 mph N/A   Clear
2:15 PM 27.0 °F 15.2 °F 16.0 °F 63% 30.06 in 10.0 mi WSW 15.0 mph 23.0 mph N/A   Clear
2:34 PM 27.0 °F 15.2 °F 15.6 °F 62% 30.06 in 10.0 mi West 15.0 mph 25.3 mph N/A   Clear
2:54 PM 27.0 °F 14.7 °F 15.8 °F 63% 30.06 in 10.0 mi WSW 16.1 mph 25.3 mph N/A   Clear
3:15 PM 27.0 °F 14.3 °F 16.0 °F 63% 30.07 in 10.0 mi West 17.3 mph 24.2 mph N/A   Clear
3:34 PM 27.0 °F 15.2 °F 16.2 °F 64% 30.07 in 10.0 mi WSW 15.0 mph 24.2 mph N/A   Clear
3:54 PM 27.0 °F 16.7 °F 16.5 °F 65% 30.07 in 10.0 mi WSW 11.5 mph 21.9 mph N/A   Clear
4:15 PM 26.4 °F 13.6 °F 16.3 °F 66% 30.07 in 10.0 mi WSW 17.3 mph 23.0 mph N/A   Clear
4:34 PM 26.1 °F 14.5 °F 16.3 °F 67% 30.08 in 10.0 mi WSW 13.8 mph 24.2 mph N/A   Clear
4:55 PM 26.1 °F 15.0 °F 16.7 °F 68% 30.08 in 10.0 mi WSW 12.7 mph 26.5 mph N/A   Clear
5:14 PM 25.5 °F 13.8 °F 16.9 °F 70% 30.09 in 10.0 mi WSW 13.8 mph 20.7 mph N/A   Clear
5:34 PM 25.2 °F 12.9 °F 17.1 °F 71% 30.09 in 10.0 mi West 15.0 mph 21.9 mph N/A   Clear
5:55 PM 25.2 °F 13.3 °F 17.4 °F 72% 30.10 in 10.0 mi West 13.8 mph 21.9 mph N/A   Clear
6:15 PM 25.2 °F 13.3 °F 18.0 °F 74% 30.11 in 10.0 mi WSW 13.8 mph 23.0 mph N/A   Clear
6:35 PM 25.2 °F 15.1 °F 18.7 °F 76% 30.11 in 10.0 mi WSW 10.4 mph 19.6 mph N/A   Clear
6:55 PM 25.2 °F 13.9 °F 19.0 °F 78% 30.12 in 10.0 mi WSW 12.7 mph 17.3 mph N/A   Clear
7:15 PM 25.3 °F 15.3 °F 19.8 °F 79% 30.13 in 10.0 mi WSW 10.4 mph 18.4 mph N/A   Clear
7:34 PM 25.5 °F 14.3 °F 20.1 °F 80% 30.13 in 10.0 mi WSW 12.7 mph 19.6 mph N/A   Clear
7:54 PM 25.5 °F 13.3 °F 20.5 °F 81% 30.14 in 10.0 mi WSW 15.0 mph - N/A   Clear
8:14 PM 25.3 °F 14.7 °F 20.5 °F 82% 30.14 in 10.0 mi WSW 11.5 mph 19.6 mph N/A   Clear
8:34 PM 25.5 °F 14.3 °F 20.7 °F 82% 30.14 in 10.0 mi WSW 12.7 mph 19.6 mph N/A   Clear
8:54 PM 25.5 °F 13.3 °F 20.8 °F 82% 30.14 in 10.0 mi WSW 15.0 mph - N/A   Clear
9:15 PM 25.9 °F 16.0 °F 20.8 °F 81% 30.14 in 10.0 mi WSW 10.4 mph - N/A   Clear
9:34 PM 25.9 °F 14.3 °F 21.0 °F 82% 30.15 in 10.0 mi WSW 13.8 mph 17.3 mph N/A   Clear
9:55 PM 25.9 °F 15.3 °F 20.8 °F 81% 30.15 in 10.0 mi West 11.5 mph - N/A   Clear
10:15 PM 25.9 °F 15.3 °F 20.8 °F 81% 30.16 in 10.0 mi WSW 11.5 mph - N/A   Clear
10:35 PM 26.1 °F 15.0 °F 20.8 °F 81% 30.16 in 10.0 mi WSW 12.7 mph - N/A   Clear
10:55 PM 26.1 °F 15.6 °F 20.8 °F 81% 30.16 in 10.0 mi WSW 11.5 mph 18.4 mph N/A   Clear
11:15 PM 26.1 °F 16.8 °F 20.7 °F 80% 30.16 in 10.0 mi West 9.2 mph - N/A   Clear
11:34 PM 25.9 °F 16.6 °F 20.8 °F 81% 30.17 in 10.0 mi West 9.2 mph - N/A   Clear
11:55 PM 25.5 °F 14.9 °F 20.7 °F 82% 30.17 in 10.0 mi West 11.5 mph 16.1 mph N/A   Clear